Flag for France Weather past 2 weeks in Poitiers, France

46 °F


Feels Like: 44 °F
Forecast: 48 / 64 °F
Wind: 5 mph from Northeast

Location: Poitiers Airport

Current Time: Oct 10, 2015 at 9:33:02 AM

Latest Report: Oct 10, 2015 at 9:00 AM

Visibility: 4 mi

Pressure: 29.95 "Hg

Humidity: 93%

Dew point: 45 °F

Location of PoitiersLocation

Historic Weather in Poitiers — Graph


Poitiers temperature yesterday

Maximum temperature yesterday: 63 °F (at 3:00 PM)
Minimum temperature yesterday: 45 °F (at 7:30 AM)
Average temperature yesterday: 53 °F

Past Weeks' High & Low Weather Summary

High70 °F (Oct 2, 5:30 PM)100% (Sep 25, 8:30 AM)30.36 "Hg (Sep 25, 8:30 AM)
Low41 °F (Oct 1, 8:30 AM)40% (Sep 28, 5:00 PM)29.59 "Hg (Oct 6, 3:30 AM)
Average56 °F77%30.08 "Hg
* Reported Sep 25 8:00 AM — Oct 10 8:30 AM, Poitiers, Weather by CustomWeather, © 2015

Note: Actual official high and low records may vary slightly from our data, if they occured in-between our weather recording intervals... More about our weather records


Poitiers weather history for previous 24 hours

Time TempWeatherWind HumidityBarometerVisibility
8:30 AM
Sat, Oct 10
45 °FFog.3 mph93%29.95 "Hg2 mi
8:00 AM43 °FFog.3 mph100%29.95 "Hg2 mi
7:30 AM43 °FFog.5 mph100%29.95 "Hg1 mi
7:00 AM45 °FClear.2 mph93%29.95 "Hg4 mi
6:30 AM45 °FClear.5 mph100%29.95 "Hg6 mi
6:00 AM46 °FClear.6 mph93%29.95 "Hg6 mi
5:30 AM45 °FClear.5 mph100%29.95 "Hg10 mi
5:00 AM46 °FClear.6 mph93%29.95 "Hg10 mi
4:30 AM45 °FClear.5 mph93%29.95 "Hg10 mi
4:00 AM45 °FClear.7 mph93%29.98 "Hg6 mi
3:30 AM45 °FClear.6 mph93%29.98 "Hg10 mi
3:00 AM46 °FClear.5 mph93%29.98 "Hg10 mi
2:30 AM46 °FClear.6 mph93%29.98 "Hg10 mi
2:00 AM46 °FClear.5 mph87%29.98 "Hg10 mi
1:30 AM46 °FClear.6 mph93%29.98 "Hg10 mi
1:00 AM48 °FClear.7 mph87%30.01 "Hg10 mi
12:30 AM46 °FClear.6 mph93%30.01 "Hg10 mi
12:00 AM48 °FClear.6 mph87%30.01 "Hg10 mi
11:00 PM
Fri, Oct 9
50 °FClear.7 mph82%30.01 "Hg10 mi
10:30 PM50 °FClear.8 mph82%30.01 "Hg10 mi
10:00 PM50 °FClear.7 mph82%30.01 "Hg10 mi
9:30 PM52 °FClear.8 mph77%30.01 "Hg10 mi
9:00 PM54 °FClear.7 mph72%30.01 "Hg10 mi
8:30 PM54 °FClear.8 mph72%30.04 "Hg10 mi
8:00 PM55 °FSunny.8 mph72%30.01 "Hg10 mi
7:30 PM57 °FPassing clouds.7 mph63%30.01 "HgN/A
7:00 PM59 °FScattered clouds.8 mph59%30.01 "HgN/A
6:30 PM61 °FPassing clouds.8 mph55%30.01 "HgN/A
6:00 PM61 °FOvercast.10 mph55%30.01 "HgN/A
5:30 PM63 °FScattered clouds.9 mph49%30.01 "HgN/A
4:30 PM63 °FScattered clouds.13 mph49%30.01 "HgN/A
4:00 PM63 °FScattered clouds.12 mph49%30.04 "HgN/A
3:30 PM61 °FPassing clouds.13 mph52%30.04 "HgN/A
3:00 PM63 °FPartly sunny.10 mph49%30.04 "HgN/A
2:30 PM61 °FPassing clouds.12 mph52%30.07 "HgN/A
2:00 PM61 °FPartly sunny.12 mph52%30.07 "HgN/A
1:30 PM61 °FPassing clouds.13 mph52%30.09 "HgN/A
1:00 PM61 °FPassing clouds.10 mph52%30.09 "HgN/A
12:30 PM59 °FPassing clouds.12 mph59%30.09 "HgN/A
12:00 PM59 °FPassing clouds.9 mph59%30.12 "HgN/A
11:30 AM57 °FPassing clouds.9 mph67%30.12 "HgN/A
11:00 AM55 °FPassing clouds.6 mph77%30.12 "HgN/A
10:30 AM54 °FSunny.6 mph77%30.12 "Hg10 mi
10:00 AM52 °FPassing clouds.5 mph82%30.12 "HgN/A
9:30 AM50 °FSunny.2 mph88%30.12 "Hg10 mi
9:00 AM46 °FClear.3 mph93%30.12 "Hg10 mi
Weather by CustomWeather, © 2015

See weather overviewHow to use our weather pages